Location: Dąbrowa Miętka
(51.3714°N, 18.6370°E)
Time: 15:32:53
(UTC+01:00)

ISS - Pass Details

Date: 02 February 2019
Orbit: 403 x 411 km, 51.6° (Epoch: 20 February)

Event Time Altitude Azimuth Distance (km) Brightness Sun altitude
Rises 19:41:12 0° 284° (WNW) 2,342 1.3 -28.8°
Reaches altitude 10° 19:43:21 10° 277° (W) 1,480 -0.1 -29.2°
Enters shadow 19:44:10 16° 270° (W) 1,174 -0.7 -29.3°
